Weather History for Muscatine, IA

Change the Weather History Date:

Friday, November 2, 2012

  Actual Average Record
Temperature  
Mean Temperature 40 °F -  
Max Temperature 51 °F 55 °F 77 °F (1990)
Min Temperature 28 °F 38 °F 14 °F (1951)
Degree Days  
Heating Degree Days 26    
Moisture  
Dew Point 26 °F    
Average Humidity 57    
Maximum Humidity 75    
Minimum Humidity 30    
Precipitation  
Precipitation 0.00 in - - ()
Sea Level Pressure  
Sea Level Pressure 30.07 in    
Wind  
Wind Speed 3 mph (ENE)    
Max Wind Speed 10 mph    
Max Gust Speed -    
Visibility 7 miles    
Events      
Averages and records for this station are not official NWS values.
T = Trace of Precipitation, MM = Missing Value Source: NWS Daily Summary

Daily Weather History Graph

Daily Weather History Graph

Search for Another Location

Airport:

Trip Planner

Search our weather history database for the weather conditions in past years. The results will help you decide how hot, cold, wet, or windy it might be!

Date:

Astronomy

Nov. 02, 2012 Rise Set
Actual Time 7:37 AM CDT 5:57 PM CDT
Civil Twilight 7:09 AM CDT 6:26 PM CDT
Nautical Twilight 6:36 AM CDT 6:59 PM CDT
Astronomical Twilight 6:04 AM CDT 7:31 PM CDT
Moon 8:44 PM CDT (11/2) 10:59 AM CDT (11/2)
Length of Visible Light 11h 17m
Length of Day
10h 19m
Waning Gibbous, 87% of the Moon is Illuminated
Nov 2
Waning Gibbous
Nov 6
Last Quarter
Nov 13
New
Nov 20
First Quarter
Nov 28
Full

Hourly Weather History & Observations

Time (CDT) Temp. Windchill Dew Point Humidity Pressure Visibility Wind Dir Wind Speed Gust Speed Precip Events Conditions
12:15 AM 35.6 °F 32.8 °F 26.6 °F 70% 29.98 in 10.0 mi NNW 3.5 mph - N/A   Clear
12:35 AM 33.8 °F 29.6 °F 26.6 °F 75% 29.99 in 10.0 mi North 4.6 mph - N/A   Clear
12:55 AM 33.8 °F 28.6 °F 24.8 °F 70% 29.99 in 10.0 mi NNW 5.8 mph - N/A   Clear
1:15 AM 33.8 °F 30.8 °F 26.6 °F 75% 29.99 in 10.0 mi NNW 3.5 mph - N/A   Clear
1:35 AM 33.8 °F 28.6 °F 26.6 °F 75% 30.00 in 10.0 mi NNW 5.8 mph - N/A   Clear
1:55 AM 33.8 °F 29.6 °F 26.6 °F 75% 30.00 in 10.0 mi NNW 4.6 mph - N/A   Clear
2:15 AM 33.8 °F 30.8 °F 24.8 °F 70% 30.01 in 10.0 mi NW 3.5 mph - N/A   Clear
2:35 AM 33.8 °F - 26.6 °F 75% 30.01 in 10.0 mi Calm Calm - N/A   Clear
2:55 AM 33.8 °F - 26.6 °F 75% 30.02 in 10.0 mi Calm Calm - N/A   Clear
3:15 AM 35.6 °F - 26.6 °F 70% 30.02 in 10.0 mi Calm Calm - N/A   Clear
3:35 AM 35.6 °F - 24.8 °F 65% 30.02 in 10.0 mi Calm Calm - N/A   Clear
3:55 AM 33.8 °F - 24.8 °F 70% 30.03 in 10.0 mi Calm Calm - N/A   Clear
4:15 AM 33.8 °F - 24.8 °F 70% 30.03 in 10.0 mi Calm Calm - N/A   Clear
4:35 AM 33.8 °F - 24.8 °F 70% 30.03 in 10.0 mi Calm Calm - N/A   Clear
4:55 AM 33.8 °F - 24.8 °F 70% 30.04 in 10.0 mi Calm Calm - N/A   Clear
5:15 AM 33.8 °F - 24.8 °F 70% 30.04 in 10.0 mi Calm Calm - N/A   Clear
5:35 AM 30.2 °F 24.3 °F 21.2 °F 69% 30.05 in 10.0 mi NNE 5.8 mph - N/A   Clear
5:55 AM 30.2 °F - 23.0 °F 75% 30.06 in 10.0 mi Calm Calm - N/A   Clear
6:15 AM 30.2 °F 26.7 °F 23.0 °F 75% 30.06 in 10.0 mi NE 3.5 mph - N/A   Clear
6:35 AM 30.2 °F 26.7 °F 23.0 °F 75% 30.06 in 10.0 mi NNE 3.5 mph - N/A   Clear
6:55 AM 30.2 °F - 23.0 °F 75% 30.06 in 10.0 mi Calm Calm - N/A   Clear
7:15 AM 30.2 °F - 23.0 °F 75% 30.06 in 10.0 mi Calm Calm - N/A   Clear
7:35 AM 28.4 °F - 21.2 °F 74% 30.07 in 10.0 mi Calm Calm - N/A   Clear
7:55 AM 30.2 °F - 23.0 °F 75% 30.07 in 10.0 mi Calm Calm - N/A   Clear
8:15 AM 30.2 °F - 23.0 °F 75% 30.08 in 10.0 mi Calm Calm - N/A   Clear
8:35 AM 32.0 °F - 24.8 °F 75% 30.09 in 10.0 mi Calm Calm - N/A   Clear
8:55 AM 35.6 °F - 26.6 °F 70% 30.09 in 10.0 mi Calm Calm - N/A   Clear
9:15 AM 37.4 °F 33.8 °F 28.4 °F 70% 30.10 in 10.0 mi NE 4.6 mph - N/A   Clear
9:35 AM 37.4 °F - 28.4 °F 70% 30.11 in 10.0 mi Calm Calm - N/A   Clear
9:55 AM 39.2 °F - 28.4 °F 65% 30.11 in 10.0 mi Calm Calm - N/A   Clear
10:15 AM 42.8 °F 40.1 °F 28.4 °F 57% 30.12 in 10.0 mi ENE 4.6 mph - N/A   Clear
10:35 AM 42.8 °F 40.1 °F 28.4 °F 57% 30.12 in 10.0 mi ENE 4.6 mph - N/A   Clear
10:55 AM 44.6 °F 42.2 °F 28.4 °F 53% 30.12 in 10.0 mi East 4.6 mph - N/A   Clear
11:15 AM 44.6 °F 40.2 °F 26.6 °F 49% 30.12 in 10.0 mi East 8.1 mph - N/A   Clear
11:35 AM 46.4 °F 43.5 °F 26.6 °F 46% 30.12 in 10.0 mi ESE 5.8 mph - N/A   Clear
11:55 AM 46.4 °F 44.3 °F 26.6 °F 46% 30.12 in 10.0 mi East 4.6 mph - N/A   Clear
12:15 PM 46.4 °F - 26.6 °F 46% 30.11 in 10.0 mi Calm Calm - N/A   Clear
12:35 PM 48.2 °F - 26.6 °F 43% 30.11 in 10.0 mi East 3.5 mph - N/A   Clear
12:55 PM 48.2 °F - 24.8 °F 40% 30.10 in 10.0 mi East 6.9 mph - N/A   Clear
1:15 PM 48.2 °F - 24.8 °F 40% 30.09 in 7.0 mi SE 6.9 mph - N/A   Clear
1:35 PM 48.2 °F - 24.8 °F 40% 30.08 in 2.5 mi East 8.1 mph - N/A   Haze
1:55 PM 50.0 °F - 24.8 °F 37% 30.09 in 5.0 mi East 3.5 mph - N/A   Haze
2:15 PM 50.0 °F - 24.8 °F 37% 30.08 in 7.0 mi ENE 6.9 mph - N/A   Clear
2:35 PM 50.0 °F - 23.0 °F 35% 30.07 in 2.5 mi ESE 8.1 mph - N/A   Haze
2:55 PM 51.8 °F - 21.2 °F 30% 30.07 in 5.0 mi East 3.5 mph - N/A   Haze
3:15 PM 50.0 °F - 21.2 °F 32% 30.06 in 5.0 mi East 5.8 mph - N/A   Haze
3:35 PM 50.0 °F - 23.0 °F 35% 30.06 in 3.0 mi East 8.1 mph - N/A   Haze
3:55 PM 50.0 °F - 24.8 °F 37% 30.06 in 2.0 mi ENE 6.9 mph - N/A   Haze
4:15 PM 48.2 °F - 24.8 °F 40% 30.06 in 1.2 mi ENE 10.4 mph - N/A   Haze
4:35 PM 48.2 °F - 26.6 °F 43% 30.06 in 1.2 mi ENE 10.4 mph - N/A   Haze
4:55 PM 48.2 °F - 26.6 °F 43% 30.07 in 2.0 mi ENE 4.6 mph - N/A   Haze
5:15 PM 46.4 °F 42.9 °F 26.6 °F 46% 30.07 in 2.5 mi ENE 6.9 mph - N/A   Haze
5:35 PM 46.4 °F 44.3 °F 28.4 °F 50% 30.07 in 1.2 mi ENE 4.6 mph - N/A   Haze
5:55 PM 46.4 °F 43.5 °F 28.4 °F 50% 30.06 in 2.5 mi ENE 5.8 mph - N/A   Haze
6:15 PM 46.4 °F 45.2 °F 28.4 °F 50% 30.06 in 5.0 mi East 3.5 mph - N/A   Haze
6:35 PM 46.4 °F 44.3 °F 28.4 °F 50% 30.06 in 5.0 mi East 4.6 mph - N/A   Haze
6:55 PM 46.4 °F 43.5 °F 26.6 °F 46% 30.06 in 5.0 mi East 5.8 mph - N/A   Haze
7:15 PM 46.4 °F - 26.6 °F 46% 30.09 in 10.0 mi Calm Calm - N/A   Clear
7:35 PM 44.6 °F 42.2 °F 26.6 °F 49% 30.07 in 10.0 mi East 4.6 mph - N/A   Clear
7:55 PM 44.6 °F - 26.6 °F 49% 30.09 in 3.0 mi Calm Calm - N/A   Haze
8:15 PM 44.6 °F 43.1 °F 26.6 °F 49% 30.08 in 5.0 mi East 3.5 mph - N/A   Haze
8:35 PM 44.6 °F 41.4 °F 26.6 °F 49% 30.08 in 5.0 mi East 5.8 mph - N/A   Haze
8:55 PM 44.6 °F 40.2 °F 24.8 °F 46% 30.07 in 4.0 mi East 8.1 mph - N/A   Haze
9:15 PM 44.6 °F 40.2 °F 24.8 °F 46% 30.08 in 5.0 mi East 8.1 mph - N/A   Haze
9:35 PM 44.6 °F 41.4 °F 24.8 °F 46% 30.09 in 5.0 mi East 5.8 mph - N/A   Haze
9:55 PM 44.6 °F 40.7 °F 24.8 °F 46% 30.10 in 4.0 mi East 6.9 mph - N/A   Haze
10:15 PM 42.8 °F 40.1 °F 26.6 °F 53% 30.11 in 3.0 mi East 4.6 mph - N/A   Haze
10:35 PM 42.8 °F 39.3 °F 26.6 °F 53% 30.11 in 4.0 mi East 5.8 mph - N/A   Haze
10:55 PM 42.8 °F 40.1 °F 24.8 °F 49% 30.12 in 5.0 mi East 4.6 mph - N/A   Haze
11:15 PM 41.0 °F 39.0 °F 24.8 °F 53% 30.12 in 3.0 mi ENE 3.5 mph - N/A   Haze
11:35 PM 42.8 °F 41.1 °F 24.8 °F 49% 30.12 in 5.0 mi ENE 3.5 mph - N/A   Haze
11:55 PM 37.4 °F 33.8 °F 26.6 °F 65% 30.12 in 4.0 mi ENE 4.6 mph - N/A   Haze